Total_Precipitation_Accumulation
0.02 0.03 0.04 0.06 0.08 0.11 0.14 0.16 0.19 0.19 0.21 0.24 0.30 0.34 0.35 0.42 0.60 0.78 0.76 0.68 0.74 0.83 0.93 1.03 1.07 1.12 1.12 1.01 0.96 0.94 0.94 1.02 0.97 0.83 0.77 0.79 0.68 0.52 0.46 0.43 0.41 0.40 0.36
0.02 0.02 0.03 0.05 0.06 0.07 0.09 0.13 0.16 0.19 0.18 0.18 0.20 0.25 0.28 0.34 0.50 0.81 0.99 1.01 0.98 0.91 0.96 1.12 1.20 1.17 1.08 1.02 1.02 0.98 0.96 1.04 0.99 0.91 0.88 0.83 0.75 0.65 0.56 0.50 0.43 0.39 0.37
0.01 0.02 0.02 0.02 0.04 0.05 0.07 0.10 0.13 0.17 0.18 0.18 0.19 0.24 0.29 0.30 0.37 0.58 0.80 0.92 0.95 0.92 0.97 1.02 1.05 1.12 1.10 1.02 0.97 0.94 0.93 1.04 1.03 0.94 1.01 1.00 0.89 0.78 0.64 0.54 0.46 0.44 0.39
0.01 0.02 0.02 0.02 0.03 0.05 0.06 0.09 0.12 0.15 0.17 0.21 0.24 0.29 0.31 0.27 0.28 0.41 0.57 0.68 0.74 0.78 0.84 0.89 0.92 0.96 1.02 1.07 1.01 0.96 0.98 1.00 1.01 1.00 1.05 1.18 1.08 0.92 0.74 0.61 0.52 0.48 0.44
0.03 0.04 0.04 0.04 0.05 0.05 0.06 0.09 0.11 0.12 0.13 0.19 0.26 0.29 0.27 0.24 0.29 0.41 0.46 0.42 0.47 0.53 0.56 0.58 0.69 0.85 0.95 1.01 0.96 0.94 0.98 0.99 0.98 1.03 1.07 1.21 1.23 1.06 0.83 0.63 0.55 0.53 0.51
0.08 0.10 0.09 0.09 0.10 0.09 0.10 0.11 0.12 0.14 0.17 0.20 0.23 0.26 0.25 0.21 0.26 0.30 0.28 0.27 0.30 0.35 0.38 0.37 0.38 0.51 0.69 0.81 0.84 0.84 0.89 0.94 0.98 1.00 1.07 1.16 1.22 1.11 0.93 0.79 0.65 0.54 0.52
0.07 0.12 0.13 0.13 0.13 0.10 0.10 0.12 0.14 0.18 0.22 0.26 0.27 0.29 0.29 0.30 0.23 0.19 0.16 0.18 0.23 0.29 0.33 0.33 0.26 0.25 0.39 0.54 0.65 0.70 0.72 0.72 0.80 0.95 1.06 1.08 1.18 1.21 1.12 0.93 0.81 0.69 0.56
0.05 0.12 0.17 0.19 0.17 0.15 0.17 0.20 0.23 0.26 0.29 0.32 0.33 0.36 0.42 0.39 0.27 0.18 0.15 0.15 0.20 0.27 0.32 0.32 0.31 0.31 0.34 0.40 0.51 0.60 0.64 0.62 0.60 0.68 0.85 1.04 1.19 1.33 1.28 1.18 1.08 0.95 0.79
0.09 0.13 0.19 0.25 0.26 0.26 0.27 0.31 0.35 0.38 0.37 0.37 0.39 0.43 0.49 0.54 0.40 0.25 0.19 0.19 0.25 0.28 0.32 0.33 0.34 0.32 0.30 0.26 0.35 0.42 0.48 0.57 0.57 0.59 0.71 0.93 1.12 1.26 1.40 1.33 1.20 1.01 0.84
0.14 0.17 0.23 0.31 0.36 0.35 0.37 0.41 0.43 0.47 0.46 0.43 0.41 0.45 0.52 0.62 0.53 0.31 0.24 0.26 0.34 0.38 0.44 0.44 0.35 0.29 0.23 0.18 0.26 0.35 0.39 0.42 0.51 0.56 0.63 0.76 0.93 1.05 1.18 1.18 1.03 0.93 0.79
0.23 0.25 0.30 0.36 0.43 0.42 0.44 0.47 0.50 0.51 0.52 0.52 0.51 0.51 0.56 0.63 0.57 0.36 0.29 0.34 0.44 0.51 0.49 0.48 0.45 0.30 0.21 0.17 0.19 0.29 0.32 0.39 0.48 0.54 0.64 0.78 0.94 1.07 1.06 1.05 0.99 0.83 0.73
0.32 0.33 0.36 0.43 0.44 0.43 0.55 0.61 0.66 0.68 0.65 0.63 0.68 0.65 0.62 0.64 0.57 0.43 0.31 0.30 0.44 0.60 0.63 0.59 0.55 0.39 0.26 0.22 0.19 0.20 0.22 0.27 0.43 0.50 0.56 0.68 0.82 0.96 1.05 1.07 1.04 0.90 0.74
0.32 0.34 0.39 0.48 0.55 0.58 0.65 0.69 0.78 0.83 0.80 0.76 0.77 0.80 0.75 0.71 0.68 0.50 0.37 0.30 0.38 0.56 0.72 0.72 0.60 0.47 0.37 0.29 0.27 0.25 0.23 0.24 0.37 0.46 0.47 0.52 0.60 0.74 1.02 1.22 1.30 1.19 0.96
0.37 0.39 0.43 0.50 0.56 0.68 0.78 0.78 0.80 0.84 0.87 0.86 0.83 0.79 0.79 0.79 0.84 0.72 0.56 0.41 0.42 0.57 0.71 0.75 0.65 0.60 0.52 0.44 0.40 0.36 0.31 0.29 0.33 0.42 0.47 0.54 0.65 0.78 0.96 1.15 1.31 1.30 1.13
0.42 0.41 0.45 0.50 0.57 0.70 0.83 0.86 0.77 0.78 0.81 0.78 0.72 0.70 0.72 0.74 0.79 0.73 0.63 0.60 0.62 0.72 0.83 0.95 0.90 0.82 0.76 0.68 0.61 0.56 0.51 0.45 0.40 0.44 0.57 0.63 0.72 0.76 0.85 0.98 1.15 1.22 1.08
0.46 0.43 0.46 0.50 0.58 0.67 0.80 0.86 0.71 0.58 0.56 0.56 0.50 0.45 0.44 0.48 0.58 0.61 0.56 0.53 0.57 0.69 0.85 1.02 0.98 0.90 0.87 0.84 0.80 0.74 0.68 0.61 0.55 0.53 0.58 0.66 0.70 0.74 0.80 0.89 0.98 1.05 1.01
0.57 0.52 0.52 0.53 0.57 0.62 0.72 0.84 0.87 0.71 0.51 0.45 0.37 0.29 0.27 0.31 0.43 0.52 0.58 0.57 0.57 0.60 0.73 0.90 0.89 0.87 0.87 0.91 0.88 0.79 0.71 0.70 0.71 0.68 0.64 0.67 0.72 0.74 0.76 0.84 0.87 0.94 0.98
0.76 0.64 0.55 0.54 0.59 0.64 0.70 0.78 0.88 0.93 0.84 0.67 0.45 0.27 0.23 0.27 0.36 0.50 0.62 0.61 0.64 0.62 0.66 0.78 0.81 0.82 0.84 0.88 0.85 0.83 0.80 0.81 0.81 0.76 0.71 0.71 0.75 0.75 0.73 0.75 0.80 0.80 0.86
0.68 0.71 0.63 0.57 0.60 0.67 0.71 0.76 0.84 0.90 0.98 0.94 0.72 0.44 0.28 0.30 0.40 0.55 0.65 0.64 0.71 0.71 0.71 0.75 0.78 0.77 0.78 0.84 0.85 0.85 0.84 0.85 0.83 0.81 0.79 0.76 0.77 0.79 0.73 0.70 0.75 0.81 0.80
0.52 0.49 0.49 0.56 0.61 0.67 0.73 0.76 0.80 0.89 0.95 0.97 0.86 0.62 0.37 0.33 0.42 0.59 0.67 0.73 0.76 0.75 0.73 0.70 0.74 0.77 0.78 0.80 0.82 0.82 0.84 0.87 0.84 0.80 0.82 0.81 0.79 0.78 0.73 0.71 0.71 0.74 0.70
0.50 0.44 0.34 0.45 0.58 0.64 0.71 0.76 0.78 0.83 0.90 0.92 0.83 0.54 0.32 0.32 0.45 0.60 0.72 0.78 0.75 0.73 0.70 0.68 0.68 0.68 0.69 0.72 0.74 0.75 0.80 0.82 0.79 0.76 0.78 0.81 0.79 0.77 0.73 0.72 0.70 0.70 0.72
0.52 0.51 0.38 0.41 0.54 0.60 0.63 0.75 0.79 0.81 0.83 0.85 0.75 0.49 0.36 0.39 0.52 0.62 0.74 0.75 0.70 0.68 0.64 0.64 0.64 0.62 0.59 0.62 0.68 0.72 0.78 0.78 0.75 0.73 0.75 0.77 0.77 0.75 0.71 0.69 0.72 0.73 0.74
0.45 0.50 0.41 0.39 0.49 0.48 0.55 0.73 0.77 0.76 0.79 0.78 0.64 0.51 0.48 0.55 0.62 0.69 0.74 0.73 0.66 0.63 0.62 0.61 0.60 0.57 0.52 0.53 0.55 0.60 0.68 0.71 0.67 0.65 0.69 0.72 0.75 0.74 0.68 0.63 0.64 0.66 0.66
0.39 0.47 0.39 0.32 0.37 0.46 0.58 0.68 0.73 0.71 0.71 0.73 0.62 0.51 0.49 0.55 0.60 0.61 0.64 0.62 0.57 0.57 0.58 0.54 0.50 0.46 0.45 0.49 0.51 0.48 0.47 0.50 0.51 0.55 0.60 0.64 0.69 0.72 0.67 0.62 0.63 0.63 0.62
0.39 0.46 0.38 0.29 0.30 0.39 0.53 0.64 0.69 0.69 0.68 0.66 0.57 0.48 0.46 0.49 0.51 0.50 0.50 0.49 0.47 0.47 0.45 0.43 0.45 0.44 0.41 0.36 0.36 0.35 0.35 0.34 0.35 0.40 0.52 0.59 0.61 0.66 0.67 0.65 0.66 0.68 0.68
0.35 0.41 0.37 0.28 0.25 0.32 0.45 0.55 0.61 0.63 0.63 0.60 0.53 0.47 0.45 0.47 0.43 0.41 0.42 0.41 0.40 0.39 0.37 0.38 0.40 0.35 0.32 0.30 0.26 0.26 0.26 0.25 0.25 0.29 0.37 0.47 0.55 0.62 0.65 0.64 0.63 0.68 0.70